CYYJ

Victoria International

Airport
ICAO code
CYYJ
Summary
ICAO Region
NAM
ICAO Territory
Location

North Saanich, British Columbia,

Coordinates
48° 38' 49" N , 123° 25' 34" W
KCC
Metar
Observation
CYYJ 270300Z 24004KT 30SM FEW040 BKN130 BKN250 06/06 A3043 RMK SC1AC5CI1 SLP307
Station
Victoria Int. Airport, B. C.
Date/Time
2023-01-27 04:00:00
Wind direction
240°
Wind speed
04 kts
Lowest cloud amount
few clouds
Temperature
6°C
Dew point
6°C
Humidity
100%
Weather condition
n/a

Description

Victoria International Airport serves Victoria, British Columbia, Canada. It is 12 nm north northwest of the city, in North Saanich, quite close to the town of Sidney on the Saanich Peninsula.

Climatology

Temperate Marine climate/Oceanic climate (Köppen climate classification Cfb). Moderately cool summer and comparatively warm winter.

Runways

Designator Length Width Surface Rops
13/31 1525 61 ASP Yes/Yes
2/20 1532 61 ASP Yes/Yes
9/27 2134 61 ASP Yes/Yes

Airport map

Aerial View

SKYbrary Partners:

Safety knowledge contributed by: